Miscellaneous Local Product
Issued by NWS North Platte, NE

Home | Current Version | Previous Version | Graphics & Text | Print | Product List | Glossary On
Versions: 1 2 3 4 5 6 7 8 9 10 11 12 13 14 15 16 17 18 19 20 21 22 23 24 25 26 27 28 29 30 31 32 33 34 35 36 37 38 39 40 41 42 43 44 45 46 47 48 49 50
000
AXUS43 KLBF 302110
MISLBF


WESTERN AND NORTH CENTRAL NEBRASKA HOURLY WEATHER ROUNDUP
NATIONAL WEATHER SERVICE NORTH PLATTE NE
300 PM CST FRI JAN 30 2015

***STATIONS NOT REPORTING VARIABLES SUCH AS SKY/WEATHER OR
PRESSURE ARE PROVIDED BY THE NEBRASKA DEPARTMENT OF
ROADS...RAWS...AND APRS NETWORKS...AND ARE NOT UNDER
NATIONAL WEATHER SERVICE QUALITY CONTROL***

...OBSERVATIONS IN AND NEAR THE EASTERN PANHANDLE OF NEBRASKA...

CITY           SKY/WX    TMP DP  RH WIND       PRES   REMARKS
PINE RIDGE     PTSUNNY   50  25  37 NW6       30.13R
CHADRON        PTSUNNY   50  28  42 W5        30.13F
ALLIANCE       CLOUDY    48  25  40 N3        30.11F
SIDNEY         CLOUDY    45  27  49 CALM      30.11F
WHITECLAY        N/A     47  24  40 NW7         N/A
CRESCENT LAKE    N/A     46  26  46 S7          N/A
LISCO            N/A     47  21  35 CALM        N/A
LEWELLEN         N/A     50  27  40 S3          N/A
$$

...OBSERVATIONS IN NORTH CENTRAL NEBRASKA...

CITY           SKY/WX    TMP DP  RH WIND       PRES   REMARKS
VALENTINE      MOSUNNY   53  25  33 SW13      30.13F
THEDFORD       CLOUDY    50  28  43 S14       30.15F
AINSWORTH      MOSUNNY   50  22  33 S16       30.14S
O`NEILL        PTSUNNY   46  28  49 S17       30.19F
ORD            CLOUDY    45  24  43 S15       30.22F
BROKEN BOW     CLOUDY    47  27  45 S18G25    30.20F
BROWNLEE         N/A     53  27  36 S17         N/A
VALENTINE NWR    N/A     49  24  37 S15         N/A
SPRINGVIEW       N/A     52  26  36 SW10        N/A
BREWSTER         N/A     49  25  39 S17         N/A
ROSE             N/A     49  29  45 SE16        N/A
NEWPORT          N/A     48  26  42 S21         N/A
SARGENT          N/A     46  28  48 SW5         N/A
COMSTOCK         N/A     48  25  40 S9          N/A
CHAMBERS         N/A     44  26  49 S20         N/A
EWING            N/A     44  30  58 S14         N/A
$$

...OBSERVATIONS IN SOUTHWEST NEBRASKA AND FAR NORTHEAST COLORADO...

CITY           SKY/WX    TMP DP  RH WIND       PRES   REMARKS
WRAY           FAIR      52  33  48 S20G25    30.12F
IMPERIAL       CLOUDY    52  32  46 S20G28    30.14F
OGALLALA       CLOUDY    51  32  47 S7        30.13F
NORTH PLATTE   CLOUDY    48  26  42 S15       30.18F
MCCOOK         CLOUDY    48  27  44 S12       30.21F
LEXINGTON      CLOUDY    46  26  45 S18       30.24S
BRADY            N/A     47  28  48 CALM        N/A
GOTHENBURG       N/A     46  25  44 S12         N/A
CALLAWAY         N/A     45  30  55 S17         N/A
$$

...NORTH PLATTE AREA...

CITY           SKY/WX    TMP DP  RH WIND       PRES   REMARKS
AIRPORT        CLOUDY    48  26  42 S15       30.18F
DOWNTOWN         N/A     48  29  47 S12G18      N/A
$$

...SOME WEATHER OBSERVATIONS FROM AROUND THE REGION...

CITY           SKY/WX    TMP DP  RH WIND       PRES   REMARKS
DENVER         CLOUDY    46  26  45 W3        30.08F
LARAMIE        CLOUDY    37  28  70 N8        30.10F WCI  31
CHEYENNE       CLOUDY    45  23  42 NE12G20   30.09F
SCOTTSBLUFF    CLOUDY    43  29  57 NW6       30.12F
RAPID CITY     SUNNY     52  24  33 N16       30.13S
PIERRE         SUNNY     46  24  42 NW6       30.13S
WINNER         FAIR      55  25  31 SW16G26   30.12F
SIOUX FALLS    MOSUNNY   37  27  67 S21       30.23F WCI  26
OMAHA          PTSUNNY   37  23  56 S13       30.38F WCI  29
GRAND ISLAND   PTSUNNY   45  25  45 S17       30.29F
KANSAS CITY    CLOUDY    38  19  46 VRB3      30.44F
WICHITA        CLOUDY    42  25  50 SE8       30.41F
HAYS           CLOUDY    45  23  42 S16G22    30.32F
LIBERAL        CLOUDY    45  27  49 S13       30.31F
GOODLAND       CLOUDY    47  31  53 S18       30.17F
$$



USA.gov is the U.S. government's official web portal to all federal, state and local government web resources and services.